Regional Weather Roundup
Issued by NWS Nashville, TN

Home | Current Version | Previous Version | Text Only | Print | Product List | Glossary On
Versions: 1 2 3 4 5 6 7 8 9 10 11 12 13 14 15 16 17 18 19 20 21 22 23 24 25 26 27 28 29 30 31 32 33 34 35 36 37 38 39 40 41 42 43 44 45 46 47 48 49 50
000
ASUS44 KOHX 180210
RWROHX
MIDDLE TENNESSEE HOURLY WEATHER ROUNDUP
NATIONAL WEATHER SERVICE NASHVILLE TN
900 PM CDT WED SEP 17 2014

NOTE: "FAIR" INDICATES FEW OR NO CLOUDS BELOW 12,000 FEET WITH
NO SIGNIFICANT WEATHER AND/OR OBSTRUCTIONS TO VISIBILITY.

* THESE REPORTS ARE NOT UNDER NWS QUALITY CONTROL AND MAY NOT
  REPORT WEATHER SUCH AS PRECIPITATION AND FOG.


TNZ005>011-023>034-057-059-062>066-078-080-180300
...NORTHERN MIDDLE TENNESSEE...

CITY           SKY/WX    TMP DP  RH WIND       PRES   REMARKS
CLARKSVILLE    PTCLDY    62  56  80 CALM      29.97F
CROSSVILLE     PTCLDY    62  54  74 E5        29.98F
GALLATIN       MOCLDY    64  60  87 CALM      29.99R
DICKSON        MOCLDY    61  59  94 CALM      29.97S
LEBANON        CLOUDY    62  57  83 SW3       29.97R
LIVINGSTON     PTCLDY    61  55  80 CALM      29.98R
NASHVILLE      CLOUDY    65  58  78 CALM      29.98R
WEST NASHVILLE   N/A     63  63 100 CALM      29.97F
PORTLAND       CLOUDY    61  57  88 CALM      29.97F
SMYRNA         MOCLDY    64  57  78 CALM      29.99R
SPARTA         CLEAR     61  59  94 NW3       29.98R
$$
TNZ056-058-060-061-075>077-079-093>097-180300
...SOUTHERN MIDDLE TENNESSEE...

CITY           SKY/WX    TMP DP  RH WIND       PRES   REMARKS
COLUMBIA       CLEAR     64  63  94 CALM      29.95F
FAYETTEVILLE   CLEAR     64  55  72 CALM      29.98S
LEWISBURG      CLOUDY    64  60  87 CALM      29.97F
MCMINNVILLE    CLEAR     63  63 100 CALM      29.98R
MURFREESBORO   MOCLDY    65  55  69 CALM      29.98R
SHELBYVILLE    CLEAR     64  59  82 CALM      29.99S
TULLAHOMA      CLEAR     63  57  82 CALM      30.00S
WINCHESTER     CLEAR     64  57  77 CALM      29.99R
$$


...KEY TO REMARKS...
VSB - VISIBILITY IN MILES
WCI - WIND CHILL INDEX
HX  - HEAT INDEX



USA.gov is the U.S. government's official web portal to all federal, state and local government web resources and services.